Date String (YYYY-MM-DD hh:mm:ss) UTC,Instrument flags,Ambient pressure (hPa),Sample flow (lpm),Bypass flow (lpm),Sample temperature (°C),Ambient temperature (°C),ASC tube jacket temperature (°C),LED temperature (°C),Box temperature (°C),Sample RH (%),Span deviation,Mass concentration (μg/m³),Mass concentration (μg/m³),Mass concentration (μg/m³)
DateTimeUTC,F1_M11,P_M11,Q1_M11,Q2_M11,T1_M11,T2_M11,T3_M11,T4_M11,T5_M11,U1_M11,ZSPAN_M11,X0_M11,X2_M11,X1_M11
2021-09-15 03:00:00,,0827.8,5.00,0.00,29.7,28.9,00.0,38.7,31.4,30.1,0000.5,0017.68,0007.59,0006.52
2021-09-15 03:01:00,,0827.9,5.00,0.00,29.7,28.9,00.0,38.8,31.4,30.1,0000.8,0017.98,0007.65,0006.53
2021-09-15 03:02:00,,0827.9,5.00,0.00,29.7,28.9,00.0,38.8,31.4,30.0,0000.9,0017.80,0007.63,0006.53
2021-09-15 03:03:00,,0827.8,5.01,0.00,29.7,28.3,00.0,38.8,31.3,30.0,0000.8,0017.86,0007.62,0006.54
2021-09-15 03:04:00,,0827.9,4.99,0.00,29.6,26.5,00.0,38.7,30.9,30.3,0000.7,0018.17,0007.64,0006.53
2021-09-15 03:05:00,,0827.9,5.00,0.00,29.4,26.0,00.0,38.7,30.7,30.4,0000.9,0018.38,0007.69,0006.53
2021-09-15 03:06:00,,0827.8,5.00,0.00,29.4,26.3,00.0,38.6,30.7,30.7,0001.0,0017.62,0007.68,0006.52
2021-09-15 03:07:00,,0827.8,5.00,0.00,29.3,26.7,00.0,38.6,30.8,31.1,0000.8,0016.35,0007.64,0006.52
2021-09-15 03:08:00,,0827.9,5.00,0.00,29.3,27.1,00.0,38.6,30.9,31.0,0001.1,0015.57,0007.62,0006.51
2021-09-15 03:09:00,,0828.0,5.00,0.00,29.3,27.4,00.0,38.6,30.9,30.9,0001.0,0014.64,0007.69,0006.50
2021-09-15 03:10:00,,0827.9,5.00,0.00,29.3,27.6,00.0,38.5,31.0,31.0,0000.7,0015.71,0007.72,0006.49
2021-09-15 03:11:00,,0827.9,5.01,0.00,29.3,27.8,00.0,38.5,31.0,31.1,0000.8,0016.07,0007.65,0006.46
2021-09-15 03:12:00,,0827.9,5.00,0.00,29.3,28.0,00.0,38.5,31.1,31.1,0000.5,0016.36,0007.65,0006.47
2021-09-15 03:13:00,,0827.9,5.01,0.00,29.4,28.1,00.0,38.5,31.1,31.1,0000.5,0016.86,0007.65,0006.44
2021-09-15 03:14:00,,0827.8,4.98,0.00,29.4,28.2,00.0,38.5,31.1,31.0,0000.4,0016.99,0007.63,0006.43
2021-09-15 03:15:00,,0827.8,5.01,0.00,29.4,28.3,00.0,38.5,31.1,30.7,0000.2,0016.73,0007.58,0006.42
2021-09-15 03:16:00,,0828.0,5.01,0.00,29.4,28.4,00.0,38.5,31.2,30.6,-000.0,0016.51,0007.48,0006.39
2021-09-15 03:17:00,,0828.0,4.99,0.00,29.4,28.5,00.0,38.5,31.2,30.5,-000.3,0016.59,0007.52,0006.41
2021-09-15 03:18:00,,0827.9,5.01,0.00,29.4,28.5,00.0,38.5,31.2,30.4,-000.4,0016.52,0007.53,0006.42
2021-09-15 03:19:00,,0827.9,4.99,0.00,29.5,28.6,00.0,38.5,31.2,30.6,-000.4,0016.83,0007.59,0006.41
2021-09-15 03:20:00,,0828.0,5.00,0.00,29.5,28.6,00.0,38.5,31.3,30.5,0000.1,0016.61,0007.52,0006.41
2021-09-15 03:21:00,,0827.8,5.00,0.00,29.5,28.6,00.0,38.6,31.3,30.2,0000.4,0015.93,0007.54,0006.41
2021-09-15 03:22:00,,0828.1,5.00,0.00,29.5,28.7,00.0,38.6,31.3,29.9,0000.3,0015.49,0007.60,0006.43
2021-09-15 03:23:00,,0827.9,4.99,0.00,29.5,28.7,00.0,38.6,31.3,30.1,0000.3,0015.44,0007.55,0006.42
2021-09-15 03:24:00,,0827.9,5.01,0.00,29.5,28.7,00.0,38.6,31.3,29.9,0000.4,0015.83,0007.52,0006.42
2021-09-15 03:25:00,,0827.9,4.99,0.00,29.5,28.8,00.0,38.6,31.3,29.9,0000.8,0014.95,0007.55,0006.42
2021-09-15 03:26:00,,0827.9,5.01,0.00,29.6,28.8,00.0,38.6,31.3,30.0,0001.5,0015.09,0007.57,0006.44
2021-09-15 03:27:00,,0828.0,4.99,0.00,29.6,28.8,00.0,38.7,31.3,29.8,0001.6,0015.08,0007.60,0006.46
2021-09-15 03:28:00,,0827.9,5.01,0.00,29.6,28.8,00.0,38.7,31.3,29.8,0002.2,0015.30,0007.60,0006.45
2021-09-15 03:29:00,,0828.0,5.01,0.00,29.6,28.8,00.0,38.7,31.4,29.8,0002.7,0015.64,0007.60,0006.46
2021-09-15 03:30:00,,0827.9,4.99,0.00,29.6,28.9,00.0,38.7,31.4,29.8,0002.7,0015.49,0007.57,0006.47
2021-09-15 03:31:00,,0827.9,5.02,0.00,29.6,28.9,00.0,38.7,31.4,29.8,0002.5,0015.30,0007.57,0006.47
2021-09-15 03:32:00,,0828.0,5.00,0.00,29.6,28.9,00.0,38.7,31.4,29.8,0002.4,0014.98,0007.53,0006.47
2021-09-15 03:33:00,,0827.9,4.99,0.00,29.6,28.9,00.0,38.7,31.4,29.8,0002.7,0016.07,0007.52,0006.46
2021-09-15 03:34:00,,0827.9,5.01,0.00,29.7,28.9,00.0,38.7,31.4,29.8,0002.9,0015.54,0007.51,0006.46
2021-09-15 03:35:00,,0827.9,5.01,0.00,29.7,28.9,00.0,38.8,31.4,29.7,0002.6,0015.31,0007.53,0006.46
2021-09-15 03:36:00,,0827.9,4.98,0.00,29.7,28.9,00.0,38.8,31.4,29.6,0002.7,0015.38,0007.53,0006.47
2021-09-15 03:37:00,,0827.9,5.01,0.00,29.7,28.9,00.0,38.8,31.4,29.6,0002.8,0015.34,0007.53,0006.47
2021-09-15 03:38:00,,0827.9,4.99,0.00,29.7,29.0,00.0,38.8,31.4,29.7,0002.8,0015.35,0007.54,0006.47
2021-09-15 03:39:00,,0827.8,5.01,0.00,29.7,29.0,00.0,38.8,31.4,29.5,0002.5,0015.05,0007.49,0006.46
2021-09-15 03:40:00,,0827.8,5.00,0.00,29.7,29.0,00.0,38.8,31.4,29.5,0002.2,0015.15,0007.50,0006.46
2021-09-15 03:41:00,,0827.9,5.00,0.00,29.7,28.1,00.0,38.8,31.2,29.5,0002.1,0015.35,0007.55,0006.46
2021-09-15 03:42:00,,0827.9,5.00,0.00,29.6,26.4,00.0,38.8,30.9,29.7,0001.9,0015.60,0007.58,0006.46
2021-09-15 03:43:00,,0827.9,4.99,0.00,29.4,26.0,00.0,38.7,30.7,29.8,0001.7,0015.76,0007.58,0006.46
2021-09-15 03:44:00,,0827.9,5.00,0.00,29.3,26.3,00.0,38.7,30.7,30.0,0001.5,0015.23,0007.59,0006.47
2021-09-15 03:45:00,,0827.9,5.00,0.00,29.3,26.7,00.0,38.6,30.8,30.0,0001.3,0015.38,0007.57,0006.47
2021-09-15 03:46:00,,0827.9,5.01,0.00,29.3,27.1,00.0,38.6,30.9,30.0,0001.2,0015.31,0007.57,0006.47
2021-09-15 03:47:00,,0827.9,5.00,0.00,29.3,27.4,00.0,38.6,30.9,30.0,-000.1,0015.48,0007.61,0006.46
2021-09-15 03:48:00,,0827.9,5.00,0.00,29.3,27.6,00.0,38.6,30.9,30.0,-000.3,0015.47,0007.65,0006.46
2021-09-15 03:49:00,,0827.8,5.00,0.00,29.3,27.8,00.0,38.5,31.0,29.9,-000.1,0015.40,0007.66,0006.46
2021-09-15 03:50:00,,0827.8,5.01,0.00,29.3,28.0,00.0,38.5,31.0,30.0,-000.1,0015.99,0007.70,0006.47
2021-09-15 03:51:00,,0827.9,5.00,0.00,29.3,28.1,00.0,38.5,31.0,30.0,0000.1,0016.40,0007.70,0006.48
2021-09-15 03:52:00,,0827.9,4.99,0.00,29.3,28.2,00.0,38.5,31.0,29.9,0000.2,0016.93,0007.68,0006.48
2021-09-15 03:53:00,,0827.9,5.01,0.00,29.3,28.3,00.0,38.5,31.0,29.9,0000.5,0016.71,0007.68,0006.49
2021-09-15 03:54:00,,0827.8,5.01,0.00,29.3,28.3,00.0,38.5,31.0,30.0,0000.6,0016.28,0007.68,0006.48
2021-09-15 03:55:00,,0827.9,5.00,0.00,29.4,28.4,00.0,38.5,31.1,30.2,0000.3,0016.19,0007.66,0006.48
2021-09-15 03:56:00,,0827.8,4.99,0.00,29.4,28.5,00.0,38.5,31.1,30.1,0000.4,0016.37,0007.65,0006.47
2021-09-15 03:57:00,,0827.7,4.99,0.00,29.4,28.5,00.0,38.5,31.1,30.0,0000.4,0016.56,0007.64,0006.46
2021-09-15 03:58:00,,0827.7,5.00,0.00,29.4,28.5,00.0,38.5,31.1,29.9,0000.3,0016.65,0007.60,0006.45
2021-09-15 03:59:00,,0827.7,5.01,0.00,29.4,28.6,00.0,38.5,31.2,30.0,-000.0,0016.81,0007.56,0006.44
